This is the latest recevied weather packets stored in our database for station/object MM1PTT-13. If no packets are shown the sender has not sent any weather packets the latest 10 day(s).
| Time | Temp. | Humidity | Pressure | Rain* | Wind** | Luminosity | Snow |
|---|---|---|---|---|---|---|---|
| 1777065343 | 11.67° C | 56% | 993.2 hPa | 0 mm | - | 0 W/m² | - |
| 1777065043 | 11.67° C | 55% | 993.2 hPa | 0 mm | - | 0 W/m² | - |
| 1777064442 | 12.78° C | 52% | 993.2 hPa | 0 mm | - | 0 W/m² | - |
| 1777064142 | 12.78° C | 51% | 993.2 hPa | 0 mm | - | 0 W/m² | - |
| 1777063842 | 12.78° C | 51% | 993.2 hPa | 0 mm | - | 0 W/m² | - |
| 1777063543 | 12.78° C | 50% | 993.2 hPa | 0 mm | - | 0 W/m² | - |
| 1777063242 | 13.33° C | 48% | 993.2 hPa | 0 mm | - | 0 W/m² | - |
| 1777062942 | 13.33° C | 47% | 993.2 hPa | 0 mm | - | 0 W/m² | - |
| 1777062343 | 13.89° C | 43% | 993.2 hPa | 0 mm | - | 0 W/m² | - |
| 1777062043 | 13.89° C | 42% | 992.9 hPa | 0 mm | - | 0 W/m² | - |
| 1777061743 | 13.89° C | 40% | 993.2 hPa | 0 mm | - | 0 W/m² | - |
| 1777061442 | 14.44° C | 39% | 993.2 hPa | 0 mm | - | 0 W/m² | - |
| 1777061142 | 14.44° C | 38% | 992.9 hPa | 0 mm | - | 1 W/m² | - |
| 1777060543 | 15° C | 37% | 992.9 hPa | 0 mm | - | 2 W/m² | - |
| 1777060243 | 15° C | 37% | 992.9 hPa | 0 mm | - | 3 W/m² | - |
| 1777059642 | 15.56° C | 36% | 992.9 hPa | 0 mm | - | 7 W/m² | - |
| 1777059342 | 16.11° C | 36% | 992.9 hPa | 0 mm | - | 9 W/m² | - |
| 1777059043 | 16.67° C | 35% | 992.9 hPa | 0 mm | - | 12 W/m² | - |
| 1777058743 | 17.22° C | 34% | 992.9 hPa | 0 mm | - | 15 W/m² | - |
| 1777058443 | 17.22° C | 33% | 993.2 hPa | 0 mm | - | 14 W/m² | - |
| 1777058143 | 17.22° C | 32% | 992.9 hPa | 0 mm | - | 16 W/m² | - |
| 1777057843 | 17.78° C | 32% | 992.9 hPa | 0 mm | - | 18 W/m² | - |
| 1777057544 | 17.78° C | 33% | 992.9 hPa | 0 mm | - | 21 W/m² | - |
| 1777057243 | 17.78° C | 33% | 992.9 hPa | 0 mm | - | 23 W/m² | - |
| 1777056944 | 18.33° C | 34% | 992.9 hPa | 0 mm | - | 26 W/m² | - |
* Rain latest hour (hover to see other rain measurements)
** Current wind speed in m/s (hover to see current wind gust speed)